カタログに戻る

STARLINK-37584

運用中通信VLEO
NORAD 69844·PAYLOAD·🇺🇸 United States

打ち上げ Jul 5, 2026 から Cape Canaveral Space Force Station

Loading…

次のパス (今後24時間)

TLE

最新Source: CelesTrak SupGP

元期: Sep 14, 2026, 22:27 UTC

1 69844C 26154AB  26257.93590278 -.00009348  00000+0 -27626-3 0  2572
2 69844  53.1591 357.7073 0001189  82.7703 286.8134 15.34388234    19

AllMySatでSTARLINK-37584をリアルタイム追跡

Download on the App Store